Regional Weather Roundup
Issued by NWS Glasgow, MT

Home | Current Version | Previous Version | Text Only | Print | Product List | Glossary On
Versions: 1 2 3 4 5 6 7 8 9 10 11 12 13 14 15 16 17 18 19 20 21 22 23 24 25 26 27 28 29 30 31 32 33 34 35 36 37 38 39 40 41 42 43 44 45 46 47 48 49 50
000
ASUS45 KGGW 060615
RWRGGW
HOURLY WEATHER ROUNDUP FOR NORTHEAST MONTANA
NATIONAL WEATHER SERVICE GLASGOW MONTANA
1100 PM MST THU MAR 05 2015

NOTE: "FAIR" INDICATES FEW OR NO CLOUDS BELOW 12,000 FEET WITH NO
SIGNIFICANT WEATHER AND/OR OBSTRUCTIONS TO VISISBILITY.

NORTHEAST MONTANA


CITY           SKY/WX    TMP DP  RH WIND       PRES   REMARKS
GLASGOW        CLOUDY    31  19  61 SW9       30.06S
6HR MIN TEMP:  31; 6HR MAX TEMP:  46;

PLENTYWOOD       N/A     24  18  77 N8          N/A
WOLF POINT     CLOUDY    34  22  61 NE3       30.07R
JORDAN           N/A     27  20  75 W8        30.08R
WINNETT          N/A     32  22  66 S3          N/A
SIDNEY         CLEAR     28  18  64 W9        30.08R
GLENDIVE       CLOUDY    34  18  51 NW10      30.07S
MALTA            N/A     30  23  75 SW6         N/A
SCOBEY           N/A     24  11  57 CALM      30.02S

FORT PECK REPORTS


CITY           SKY/WX    TMP DP  RH WIND       PRES   REMARKS
FORT PECK        N/A     35  20  54 W5          N/A
THE PINES        N/A     37  19  48 W5          N/A

SOUTHEAST MONTANA


CITY           SKY/WX    TMP DP  RH WIND       PRES   REMARKS
BILLINGS       CLOUDY    39  14  36 SW22      30.15S
MILES CITY     PTCLDY    33  15  47 MISG      30.09S
BAKER          PTCLDY    31  15  52 W12       30.07S
LIVINGSTON     MOCLDY    42  13  30 W24G32    30.19R

CENTRAL MONTANA


CITY           SKY/WX    TMP DP  RH WIND       PRES   REMARKS
HAVRE          MOCLDY    35  20  54 CALM      30.08S
LEWISTOWN      PTCLDY    32  19  58 W8        30.12R
GREAT FALLS    CLEAR     34  15  46 SW10      30.12S
CUT BANK       PTCLDY    39  16  39 W28G39    30.07R
HELENA         PTCLDY    43  13  29 MISG      30.22R
BUTTE          PTCLDY    26  17  68 CALM      30.27R
BOZEMAN        PTCLDY    27  20  75 SE6       30.25R

WESTERN MONTANA


CITY           SKY/WX    TMP DP  RH WIND       PRES   REMARKS
MISSOULA       PTCLDY    32  19  58 W3        30.32S
KALISPELL      NOT AVBL

NORTH DAKOTA


CITY           SKY/WX    TMP DP  RH WIND       PRES   REMARKS
WILLISTON      CLEAR     31  19  61 NW10      30.04R
DICKINSON      CLOUDY    30  14  51 W14       30.00S
MINOT          CLEAR     26  15  63 W14       29.98R
BISMARCK       PTCLDY    24  13  62 W6        30.02F

SOUTHERN SASKATCHEWAN


CITY           SKY/WX    TMP DP  RH WIND       PRES   REMARKS
REGINA         CLEAR     10   7  85 W5        30.02R
ESTEVAN        CLEAR     16  12  86 W8G30     30.02R
SWIFT CURRENT  CLEAR     21  18  86 SW12      30.00F




USA.gov is the U.S. government's official web portal to all federal, state and local government web resources and services.